Weather History for Guatemala Aeropuertola Aurora, Guatemala

Change the Weather History Date:

Saturday, September 21, 2013

  Actual Average Record
Temperature  
Mean Temperature 68 °F -  
Max Temperature 74 °F 73 °F - ()
Min Temperature 62 °F 59 °F - ()
Cooling Degree Days 3    
Growing Degree Days 18 (Base 50)    
Moisture  
Dew Point 63 °F    
Average Humidity 88    
Maximum Humidity 100    
Minimum Humidity 65    
Precipitation  
Precipitation 0.00 in - - ()
Sea Level Pressure  
Sea Level Pressure 30.12 in    
Wind  
Wind Speed 7 mph ()    
Max Wind Speed 14 mph    
Max Gust Speed -    
Visibility 4.9 miles    
Events Rain    
T = Trace of Precipitation, MM = Missing Value Source: Averaged Metar Reports

Daily Weather History Graph

Daily Weather History Graph

Search for Another Location

Airport:

Trip Planner

Search our weather history database for the weather conditions in past years. The results will help you decide how hot, cold, wet, or windy it might be!

Date:

Astronomy

Sep. 21, 2013 Rise Set
Actual Time 5:51 AM CST 5:58 PM CST
Civil Twilight 5:29 AM CST 6:20 PM CST
Nautical Twilight 5:04 AM CST 6:44 PM CST
Astronomical Twilight 4:40 AM CST 7:09 PM CST
Moon 7:41 PM CST (9/21) 7:41 AM CST (9/21)
Length of Visible Light 12h 50m
Length of Day
12h 07m
Waning Gibbous, 94% of the Moon is Illuminated
Sep 21
Waning Gibbous
Sep 26
Last Quarter
Oct 4
New
Oct 11
First Quarter
Oct 18
Full

Hourly Weather History & Observations

Time (CST) Temp. Dew Point Humidity Pressure Visibility Wind Dir Wind Speed Gust Speed Precip Events Conditions
12:00 AM 64.4 °F 62.6 °F 94% 30.21 in 2.5 mi South 5.8 mph - N/A   Overcast
12:10 AM - - N/A% - 6.2 mi South 9.2 mph - N/A   Mostly Cloudy
1:00 AM 64.4 °F 62.6 °F 94% 30.18 in 5.0 mi South 6.9 mph - N/A   Mostly Cloudy
2:00 AM 64.4 °F 62.6 °F 94% 30.18 in 4.3 mi South 5.8 mph - N/A   Mostly Cloudy
3:00 AM 64.4 °F 62.6 °F 94% 30.15 in 5.0 mi South 4.6 mph - N/A   Mostly Cloudy
4:00 AM 64.4 °F 62.6 °F 94% 30.15 in 5.0 mi South 6.9 mph - N/A   Mostly Cloudy
5:00 AM 64.4 °F 62.6 °F 94% 30.15 in 3.1 mi South 6.9 mph - N/A   Scattered Clouds
6:00 AM 64 °F 63 °F 95% 29.90 in 5 mi South 4.6 mph - -   Mist
6:00 AM 64.4 °F 62.6 °F 94% 30.15 in 5.0 mi South 4.6 mph - N/A   Mostly Cloudy
7:00 AM 64.4 °F 62.6 °F 94% 30.18 in 5.0 mi South 4.6 mph - N/A   Mostly Cloudy
8:00 AM 64.4 °F 62.6 °F 94% 30.21 in 5.0 mi South 9.2 mph - N/A   Mostly Cloudy
9:00 AM 66.2 °F 62.6 °F 88% 30.21 in - North - - N/A   Mostly Cloudy
9:25 AM - - N/A% - 6.2 mi South 9.2 mph - N/A   Partly Cloudy
10:00 AM 68.0 °F 62.6 °F 83% 30.21 in 6.2 mi South 11.5 mph - N/A   Scattered Clouds
11:00 AM 68.0 °F 62.6 °F 83% 30.21 in 6.2 mi South 11.5 mph - N/A   Mostly Cloudy
12:00 PM 71 °F 62 °F 67% 29.84 in 25 mi South 6.9 mph - -   Partly Cloudy
12:00 PM 69.8 °F 62.6 °F 78% 30.18 in - North - - N/A   Mostly Cloudy
1:00 PM 73.4 °F 60.8 °F 65% 30.15 in 6.2 mi SSW 13.8 mph - N/A   Mostly Cloudy
1:17 PM - - N/A% - 6.2 mi South 11.5 mph - N/A   Light Drizzle
2:00 PM 69.8 °F 62.6 °F 78% 30.12 in 6.2 mi South 9.2 mph - N/A   Light Drizzle
2:25 PM - - N/A% - 6.2 mi South 13.8 mph - N/A   Mostly Cloudy
3:00 PM 73.4 °F 62.6 °F 69% 30.09 in 6.2 mi South 13.8 mph - N/A   Mostly Cloudy
4:00 PM 69.8 °F 62.6 °F 78% 30.09 in 6.2 mi South 13.8 mph - N/A   Mostly Cloudy
5:00 PM 68.0 °F 62.6 °F 83% 30.09 in 6.2 mi South 11.5 mph - N/A   Mostly Cloudy
6:00 PM 67 °F 63 °F 81% 29.79 in 25 mi SSW 11.5 mph - - Rain Light Drizzle
6:00 PM 66.2 °F 62.6 °F 88% 30.09 in 6.2 mi SSW 11.5 mph - N/A   Light Drizzle
7:00 PM 66.2 °F 62.6 °F 88% 30.15 in 6.2 mi SW 6.9 mph - N/A   Mostly Cloudy
7:13 PM - - N/A% - 1.2 mi SSW 6.9 mph - N/A   Drizzle
8:00 PM 64.4 °F 64.4 °F 100% 30.15 in 1.2 mi SSW 9.2 mph - N/A   Drizzle
8:05 PM - - N/A% - 3.1 mi SSW 6.9 mph - N/A   Light Drizzle
8:40 PM - - N/A% - 2.5 mi SW 9.2 mph - N/A   Mostly Cloudy
9:00 PM 64.4 °F 64.4 °F 100% 30.18 in 1.9 mi SSW 9.2 mph - N/A   Light Drizzle
9:17 PM - - N/A% - 4.3 mi SSW 6.9 mph - N/A   Light Drizzle
10:00 PM 64.4 °F 64.4 °F 100% 30.18 in 6.2 mi SSW 9.2 mph - N/A   Mostly Cloudy
11:00 PM 64.4 °F 64.4 °F 100% 30.18 in 6.2 mi South 6.9 mph - N/A   Mostly Cloudy